User: anonymous   Login
Location: Bonneuil
(46.1010°N, 2.9693°E)
Time: 01:22:16
(UTC+00:00)
Language:

Cosmos 1763 Rocket - Orbit

View from above orbital plane
View from above orbital plane
View from above satellite
View from above satellite

Ground track
Ground track

The orbit data is extracted from the following two-line orbital elements,

1 16864U 86052B   20192.39851968 +.00000049 +00000-0 +23638-4 0  9998
2 16864 074.0274 183.1111 0032951 002.4448 357.6862 14.40588901783824
Epoch (UTC): 10 July 2020 09:33:52
Eccentricity: 0.0032951
inclination: 74.0274°
perigee height: 733 km
apogee height: 780 km
right ascension of ascending node: 183.1111°
argument of perigee: 2.4448°
revolutions per day: 14.40588901
mean anomaly at epoch: 357.6862°
orbit number at epoch: 78382

The dashed part of the orbit path shows where the satellite is in the earth's shadow,  

DLR